Terminal Aerodrome Forecast
Issued by NWS Wilmington, OH

Current Version | Previous Version | Text Only | Print | Product List | Glossary Off
Versions: 1 2 3 4 5 6 7 8 9 10 11 12 13 14 15 16 17 18 19 20 21 22 23 24 25 26 27

000
FTUS41 KILN 222340
TAFCVG
TAF
KCVG 222340Z 2300/2406 27007KT P6SM FEW050 BKN250
     FM230500 33004KT P6SM SKC
     FM231600 32008KT P6SM SCT050
     FM240200 33004KT P6SM SKC=

USA.gov is the U.S. government's official web portal to all federal, state and local government web resources and services.